Location: Arleux
(50.3632°N, 2.8721°E)
Time: 07:36:30
(UTC+00:00)

Helios 1A Rocket - Pass Details

Date: 15 December 2019
Orbit: 564 x 587 km, 98.3° (Epoch: 21 January)

Event Time Altitude Azimuth Distance (km) Brightness Sun altitude
Rises 05:25:52 0° 17° (NNE) 2,776 6.5 -20.4°
Reaches altitude 10° 05:28:03 10° 21° (NNE) 1,872 5.6 -20.1°
Maximum altitude 05:32:03 60° 102° (ESE) 650 3.4 -19.5°
Drops below altitude 10° 05:36:01 10° 183° (S) 1,855 5.6 -18.8°
Sets 05:38:10 0° 187° (S) 2,748 6.5 -18.5°
